NUSANTARA TIGA (SATRIA)

Last updated on Mon Oct 14 2024 00:02:42 GMT+0000 (Coordinated Universal Time)

1 57045U 23086A 24287.54280904 -.00000236 00000+0 00000+0 0 9995 2 57045 0.0470 29.6055 0003636 254.4323 79.9808 1.00268170 4923
UTC large
Height (km)
Speed (km/s)
/
Latitude / Longitude
Inclination (degrees)
Orbital Period (minutes)
Azimuth
Elevation
Range (km)
Doppler Factor

Next 0 passes for location: London (51.5072 / 0.1276)

Sorry there are no passes over London.